User: anonymous   Login
Location: Lafig�re
(44.4503°N, 4.0357°E)
Time: 19:18:13
(UTC+00:00)
Language:

CREW DRAGON DEMO-1 DEB - Orbit

View from above orbital plane
View from above orbital plane
View from above satellite
View from above satellite

Ground track
Ground track

The orbit data is extracted from the following two-line orbital elements,

1 44064U 19011B   20331.05854318  .00040396  00000-0  32394-3 0  9999
2 44064  51.6318 210.9721 0000963 277.7359  82.3529 15.70602112 98252
Epoch (UTC): 26 November 2020 01:24:18
Eccentricity: 0.0000963
inclination: 51.6318°
perigee height: 356 km
apogee height: 358 km
right ascension of ascending node: 210.9721°
argument of perigee: 277.7359°
revolutions per day: 15.70602112
mean anomaly at epoch: 82.3529°
orbit number at epoch: 9825

The dashed part of the orbit path shows where the satellite is in the earth's shadow,  

DLR